Location: Newark
(52.4787°S, 179.0532°W)
Time: 04:23:38
(UTC+00:00)

SR - All Passes

Search period start: 22 November 2019 00:00
Search period end: 02 December 2019 00:00
Orbit: 573 x 882 km, 66.7° (Epoch: 21 November)

Date Brightness Start Highest point End Pass type
(mag) Time Alt. Az. Time Alt. Az. Time Alt. Az.
22 Nov - 13:55:44 10° NNW 14:00:14 46° ENE 14:04:29 10° SE visible
22 Nov - 15:38:08 10° WNW 15:42:22 36° SW 15:46:26 10° SSE daylight
22 Nov - 17:23:07 10° SW 17:25:37 15° SSW 17:28:04 10° SSE daylight
22 Nov - 19:07:11 10° SSW 19:09:26 14° SSE 19:11:42 10° SE daylight
22 Nov - 20:48:56 10° SSW 20:52:47 31° SE 20:56:39 10° E daylight
22 Nov - 22:30:51 10° SW 22:34:59 51° WNW 22:39:13 10° NNE daylight
23 Nov - 13:06:55 10° N 13:10:47 25° ENE 13:14:27 10° ESE visible
23 Nov - 14:47:58 10° NW 14:52:33 58° SW 14:56:53 10° SE visible
23 Nov - 16:32:18 10° WSW 16:35:26 18° SSW 16:38:29 10° SSE daylight
23 Nov - 18:17:14 10° SSW 18:19:09 13° S 18:21:04 10° SSE daylight
23 Nov - 19:59:25 10° SSW 20:02:47 22° SSE 20:06:08 10° E daylight
23 Nov - 21:41:06 10° SW 21:45:24 86° SE 21:49:46 10° NE daylight
23 Nov - 23:24:20 10° WSW 23:26:49 15° WNW 23:29:21 10° NW daylight
24 Nov - 12:19:09 10° NE 12:21:28 14° ENE 12:23:44 10° ESE visible
24 Nov - 13:58:11 10° NNW 14:02:51 81° NE 14:07:16 10° SE visible
24 Nov - 15:41:36 10° W 15:45:21 25° SSW 15:48:58 10° SSE daylight
24 Nov - 17:26:49 10° SW 17:28:51 13° S 17:30:53 10° SSE daylight
24 Nov - 19:09:52 10° SSW 19:12:39 16° SSE 19:15:24 10° ESE daylight
24 Nov - 20:51:30 10° SSW 20:55:40 48° SE 20:59:53 10° ENE daylight
24 Nov - 22:33:49 10° WSW 22:37:30 28° WNW 22:41:15 10° N daylight
25 Nov - 13:08:51 10° NNW 13:13:17 44° ENE 13:17:29 10° SE visible
25 Nov - 14:51:08 10° WNW 14:55:24 37° SW 14:59:28 10° SSE visible
25 Nov - 16:36:04 10° SW 16:38:36 15° SSW 16:41:05 10° SSE daylight
25 Nov - 18:20:13 10° SSW 18:22:25 14° S 18:24:37 10° SE daylight
25 Nov - 20:01:58 10° SSW 20:05:48 30° SE 20:09:38 10° E daylight
25 Nov - 21:43:51 10° SW 21:48:02 54° WNW 21:52:19 10° NNE daylight
26 Nov - 12:20:07 10° NNE 12:23:51 24° ENE 12:27:25 10° ESE visible
26 Nov - 14:01:00 10° NW 14:05:35 61° SW 14:09:55 10° SE visible
26 Nov - 15:45:15 10° WSW 15:48:25 19° SSW 15:51:31 10° SSE daylight
26 Nov - 17:30:14 10° SSW 17:32:08 13° S 17:34:01 10° SSE daylight
26 Nov - 19:12:28 10° SSW 19:15:47 21° SSE 19:19:05 10° ESE daylight
26 Nov - 20:54:08 10° SW 20:58:25 81° SE 21:02:49 10° NE daylight
26 Nov - 22:37:14 10° WSW 22:39:54 16° WNW 22:42:37 10° NNW daylight
27 Nov - 11:32:31 10° NE 11:34:33 13° ENE 11:36:32 10° E visible
27 Nov - 13:11:15 10° NNW 13:15:54 77° NE 13:20:16 10° SE visible
27 Nov - 14:54:34 10° W 14:58:20 25° SSW 15:02:00 10° SSE daylight
27 Nov - 16:39:47 10° SW 16:41:51 13° S 16:43:52 10° SSE daylight
27 Nov - 18:22:55 10° SSW 18:25:38 16° SSE 18:28:20 10° ESE daylight
27 Nov - 20:04:32 10° SSW 20:08:41 46° SE 20:12:53 10° ENE daylight
27 Nov - 21:46:48 10° SW 21:50:33 30° WNW 21:54:25 10° N daylight
28 Nov - 12:21:58 10° N 12:26:20 41° ENE 12:30:29 10° SE visible
28 Nov - 14:04:08 10° WNW 14:08:25 38° SW 14:12:29 10° SSE visible
28 Nov - 15:49:01 10° SW 15:51:35 15° SSW 15:54:07 10° SSE daylight
28 Nov - 17:33:14 10° SSW 17:35:24 13° S 17:37:33 10° SE daylight
28 Nov - 19:15:01 10° SSW 19:18:48 29° SE 19:22:36 10° E daylight
28 Nov - 20:56:52 10° SW 21:01:05 58° WNW 21:05:23 10° NNE daylight
29 Nov - 11:33:18 10° NNE 11:36:55 23° ENE 11:40:22 10° ESE visible
29 Nov - 13:14:02 10° NW 13:18:36 64° SW 13:22:56 10° SE visible
29 Nov - 14:58:13 10° WSW 15:01:24 19° SSW 15:04:32 10° SSE daylight
29 Nov - 16:43:14 10° SSW 16:45:07 12° S 16:46:59 10° SSE daylight
29 Nov - 18:25:31 10° SSW 18:28:46 20° SSE 18:32:02 10° ESE daylight
29 Nov - 20:07:10 10° SW 20:11:27 77° SE 20:15:51 10° NE daylight
29 Nov - 21:50:08 10° WSW 21:52:58 17° WNW 21:55:51 10° NNW daylight
30 Nov - 10:45:56 10° NE 10:47:38 12° ENE 10:49:17 10° E visible
30 Nov - 12:24:20 10° NNW 12:28:56 73° NE 12:33:18 10° SE visible
30 Nov - 14:07:33 10° W 14:11:21 26° SSW 14:15:01 10° SSE visible
30 Nov - 15:52:45 10° SW 15:54:50 13° S 15:56:52 10° SSE daylight
30 Nov - 17:35:58 10° SSW 17:38:37 16° SSE 17:41:17 10° ESE daylight
30 Nov - 19:17:35 10° SSW 19:21:42 44° SE 19:25:53 10° ENE daylight
30 Nov - 20:59:47 10° SW 21:03:37 32° WNW 21:07:33 10° N daylight
01 Dec - 11:35:06 10° N 11:39:23 39° ENE 11:43:28 10° SE visible
01 Dec - 13:17:08 10° WNW 13:21:25 40° SW 13:25:31 10° SSE visible
01 Dec - 15:01:58 10° SW 15:04:34 15° SSW 15:07:08 10° SSE daylight
01 Dec - 16:46:16 10° SSW 16:48:23 13° S 16:50:30 10° SE daylight
01 Dec - 18:28:03 10° SSW 18:31:48 28° SE 18:35:34 10° E daylight
01 Dec - 20:09:53 10° SW 20:14:07 61° NW 20:18:28 10° NNE daylight
